JLY1182 LGSK-LQSA

Flight info

Callsign JLY1182
Flight time 1h 9m
Altitude 34000
Route TSL UN130 TALAS DCT LONTA DCT KEB
Aircraft B738/M-SDE2E3FGHIRWXY/LB1

Departure

Time 2026-04-26 23:55
Airport Skiathos Island National Airport (LGSK)

Arrival

Time 2026-04-27 01:05
Airport Sarajevo International Airport (LQSA)
Time Latitude Longitude Altitude Speed Heading
2026-04-26 23:19 39.17949 23.50259 38 ft 0 kts 289°
2026-04-26 23:19 39.17909 23.50242 37 ft 0 kts 289°
2026-04-26 23:49 39.17907 23.50249 38 ft 4 kts 288°
2026-04-26 23:50 39.17900 23.50283 38 ft 4 kts 275°
2026-04-26 23:50 39.17901 23.50316 37 ft 4 kts 249°
2026-04-26 23:50 39.17913 23.50337 37 ft 1 kts 199°
2026-04-26 23:50 39.17914 23.50338 37 ft 1 kts 199°
2026-04-26 23:52 39.17900 23.50332 39 ft 4 kts 199°
2026-04-26 23:52 39.17861 23.50314 38 ft 8 kts 199°
2026-04-26 23:52 39.17800 23.50287 38 ft 10 kts 199°
2026-04-26 23:52 39.17727 23.50277 37 ft 11 kts 153°
2026-04-26 23:53 39.17681 23.50323 40 ft 8 kts 180°
2026-04-26 23:53 39.17614 23.50317 40 ft 13 kts 186°
2026-04-26 23:53 39.17491 23.50269 38 ft 23 kts 199°
2026-04-26 23:53 39.17309 23.50187 29 ft 28 kts 197°
2026-04-26 23:54 39.17148 23.50117 21 ft 20 kts 200°
2026-04-26 23:54 39.17069 23.50093 18 ft 15 kts 173°
2026-04-26 23:54 39.17029 23.50060 10 ft 7 kts 323°
2026-04-26 23:54 39.17049 23.50066 13 ft 3 kts 33°
2026-04-26 23:55 39.17263 23.50169 27 ft 74 kts 19°
2026-04-26 23:55 39.18005 23.50498 45 ft 149 kts 19°
2026-04-26 23:55 39.19123 23.51063 381 ft 186 kts 26°
2026-04-26 23:55 39.20275 23.51863 1427 ft 183 kts 20°
2026-04-26 23:56 39.21517 23.52313 2357 ft 195 kts 19°
2026-04-26 23:56 39.22579 23.53443 2852 ft 210 kts 63°
2026-04-26 23:56 39.22683 23.55322 3476 ft 220 kts 107°
2026-04-26 23:56 39.21803 23.56950 4172 ft 227 kts 132°
2026-04-26 23:57 39.20658 23.58372 4884 ft 229 kts 133°
2026-04-26 23:57 39.19503 23.59818 5551 ft 236 kts 132°
2026-04-26 23:57 39.18326 23.61316 6371 ft 236 kts 132°
2026-04-26 23:57 39.17278 23.62969 6956 ft 247 kts 112°
2026-04-26 23:58 39.16822 23.65191 7266 ft 267 kts 91°
2026-04-26 23:58 39.16987 23.67594 7974 ft 272 kts 72°
2026-04-26 23:58 39.17799 23.69785 8788 ft 273 kts 51°
2026-04-26 23:58 39.19201 23.71430 9624 ft 275 kts 29°
2026-04-26 23:59 39.20991 23.72231 10375 ft 281 kts
2026-04-26 23:59 39.23014 23.72109 10606 ft 307 kts 344°
2026-04-26 23:59 39.24943 23.70716 10798 ft 334 kts 317°
2026-04-26 23:59 39.26294 23.68171 11142 ft 354 kts 298°
2026-04-27 00:00 39.27431 23.65318 11776 ft 360 kts 299°
2026-04-27 00:00 39.28583 23.62433 12550 ft 362 kts 298°
2026-04-27 00:00 39.29734 23.59532 13329 ft 365 kts 298°
2026-04-27 00:00 39.30990 23.56672 14018 ft 368 kts 309°
2026-04-27 00:01 39.32892 23.54472 14691 ft 369 kts 328°
2026-04-27 00:01 39.35205 23.53060 15412 ft 369 kts 340°
2026-04-27 00:01 39.37647 23.51980 16113 ft 372 kts 341°
2026-04-27 00:01 39.40101 23.50900 16778 ft 374 kts 340°
2026-04-27 00:02 39.42574 23.49781 17439 ft 377 kts 339°
2026-04-27 00:02 39.45044 23.48612 18109 ft 379 kts 338°
2026-04-27 00:02 39.47521 23.47413 18713 ft 382 kts 338°
2026-04-27 00:02 39.50018 23.46194 19269 ft 385 kts 338°
2026-04-27 00:03 39.52531 23.44967 19811 ft 388 kts 338°
2026-04-27 00:03 39.55062 23.43731 20357 ft 390 kts 338°
2026-04-27 00:03 39.57616 23.42487 20880 ft 393 kts 338°
2026-04-27 00:03 39.60192 23.41232 21320 ft 398 kts 338°
2026-04-27 00:04 39.62803 23.39960 21810 ft 402 kts 338°
2026-04-27 00:04 39.65427 23.38683 22338 ft 404 kts 338°
2026-04-27 00:04 39.68071 23.37395 22846 ft 406 kts 338°
2026-04-27 00:04 39.70723 23.36102 23334 ft 409 kts 338°
2026-04-27 00:05 39.73401 23.34795 23777 ft 412 kts 338°
2026-04-27 00:05 39.76095 23.33480 24167 ft 415 kts 338°
2026-04-27 00:05 39.78802 23.32157 24559 ft 417 kts 338°
2026-04-27 00:05 39.81528 23.30824 24929 ft 420 kts 338°
2026-04-27 00:06 39.84271 23.29481 25301 ft 423 kts 338°
2026-04-27 00:06 39.86997 23.28145 25661 ft 425 kts 338°
2026-04-27 00:06 39.89772 23.26784 26019 ft 428 kts 338°
2026-04-27 00:06 39.92602 23.25395 26374 ft 430 kts 337°
2026-04-27 00:07 39.95375 23.24033 26709 ft 432 kts 337°
2026-04-27 00:07 39.98198 23.22645 27047 ft 435 kts 337°
2026-04-27 00:07 40.01029 23.21251 27369 ft 437 kts 337°
2026-04-27 00:07 40.03888 23.19843 27698 ft 440 kts 337°
2026-04-27 00:08 40.06761 23.18427 28007 ft 442 kts 337°
2026-04-27 00:08 40.09651 23.17001 28312 ft 444 kts 337°
2026-04-27 00:08 40.12550 23.15569 28614 ft 447 kts 337°
2026-04-27 00:08 40.15456 23.14132 28972 ft 447 kts 337°
2026-04-27 00:09 40.17383 23.13179 29255 ft 446 kts 337°
2026-04-27 00:09 40.21255 23.11262 29922 ft 443 kts 337°
2026-04-27 00:09 40.24096 23.09854 30310 ft 443 kts 337°
2026-04-27 00:09 40.26986 23.08420 30565 ft 445 kts 337°
2026-04-27 00:10 40.29883 23.06981 30870 ft 445 kts 337°
2026-04-27 00:10 40.32775 23.05543 31257 ft 443 kts 337°
2026-04-27 00:10 40.34720 23.04576 31528 ft 442 kts 337°
2026-04-27 00:10 40.38519 23.02684 31999 ft 441 kts 337°
2026-04-27 00:11 40.40459 23.01717 32197 ft 441 kts 337°
2026-04-27 00:11 40.43224 23.00125 32489 ft 439 kts 328°
2026-04-27 00:11 40.45756 22.97906 32830 ft 436 kts 320°
2026-04-27 00:11 40.47991 22.95249 33193 ft 433 kts 311°
2026-04-27 00:12 40.49889 22.92196 33513 ft 431 kts 306°
2026-04-27 00:12 40.52307 22.87990 33914 ft 431 kts 306°
2026-04-27 00:12 40.53494 22.85905 34089 ft 431 kts 306°
2026-04-27 00:12 40.55307 22.82734 34066 ft 435 kts 306°
2026-04-27 00:13 40.58965 22.76396 34074 ft 433 kts 306°
2026-04-27 00:13 40.62593 22.70149 34082 ft 428 kts 306°
2026-04-27 00:14 40.66212 22.63916 34091 ft 428 kts 306°
2026-04-27 00:14 40.69827 22.57675 34098 ft 428 kts 306°
2026-04-27 00:15 40.73444 22.51415 34102 ft 429 kts 306°
2026-04-27 00:15 40.77057 22.45153 34108 ft 429 kts 306°
2026-04-27 00:16 40.80652 22.38924 34116 ft 430 kts 306°
2026-04-27 00:16 40.84280 22.32636 34126 ft 431 kts 306°
2026-04-27 00:17 40.87911 22.26328 34130 ft 431 kts 306°
2026-04-27 00:17 40.91545 22.19999 34129 ft 432 kts 306°
2026-04-27 00:18 40.95175 22.13664 34149 ft 432 kts 306°
2026-04-27 00:18 40.98801 22.07321 34143 ft 432 kts 306°
2026-04-27 00:19 41.02421 22.00978 34159 ft 431 kts 306°
2026-04-27 00:19 41.06133 21.94754 34166 ft 431 kts 314°
2026-04-27 00:20 41.11018 21.90119 34190 ft 436 kts 331°
2026-04-27 00:20 41.16679 21.87278 34190 ft 439 kts 338°
2026-04-27 00:21 41.22458 21.84641 34168 ft 439 kts 338°
2026-04-27 00:21 41.28253 21.81950 34189 ft 439 kts 338°
2026-04-27 00:22 41.33972 21.79245 34211 ft 438 kts 338°
2026-04-27 00:22 41.39720 21.76505 34189 ft 438 kts 338°
2026-04-27 00:23 41.45456 21.73764 34202 ft 438 kts 338°
2026-04-27 00:23 41.51186 21.71023 34204 ft 437 kts 338°
2026-04-27 00:24 41.56922 21.68274 34194 ft 437 kts 338°
2026-04-27 00:24 41.62640 21.65528 34193 ft 437 kts 338°
2026-04-27 00:25 41.68361 21.62776 34204 ft 437 kts 338°
2026-04-27 00:25 41.74088 21.60016 34197 ft 437 kts 338°
2026-04-27 00:26 41.79770 21.57272 34216 ft 436 kts 338°
2026-04-27 00:26 41.85490 21.54504 34197 ft 438 kts 338°
2026-04-27 00:27 41.91229 21.51722 34194 ft 439 kts 338°
2026-04-27 00:27 41.96983 21.48928 34204 ft 440 kts 338°
2026-04-27 00:28 42.02744 21.46124 34207 ft 441 kts 338°
2026-04-27 00:28 42.08509 21.43313 34208 ft 441 kts 338°
2026-04-27 00:29 42.14172 21.40185 34212 ft 439 kts 327°
2026-04-27 00:29 42.18918 21.35118 34206 ft 435 kts 310°
2026-04-27 00:30 42.22835 21.28904 34218 ft 435 kts 308°
2026-04-27 00:30 42.26712 21.22638 34215 ft 435 kts 308°
2026-04-27 00:31 42.30604 21.16390 34218 ft 434 kts 309°
2026-04-27 00:31 42.34473 21.10208 34231 ft 433 kts 309°
2026-04-27 00:32 42.38364 21.03991 34234 ft 432 kts 309°
2026-04-27 00:32 42.42244 20.97783 34243 ft 432 kts 309°
2026-04-27 00:33 42.46120 20.91566 34234 ft 432 kts 309°
2026-04-27 00:33 42.49990 20.85344 34242 ft 431 kts 309°
2026-04-27 00:34 42.53854 20.79118 34228 ft 431 kts 309°
2026-04-27 00:34 42.57715 20.72886 34227 ft 431 kts 309°
2026-04-27 00:35 42.61573 20.66643 34231 ft 431 kts 309°
2026-04-27 00:35 42.65427 20.60395 34232 ft 431 kts 309°
2026-04-27 00:36 42.69276 20.54142 34230 ft 431 kts 309°
2026-04-27 00:36 42.73128 20.47870 34237 ft 432 kts 309°
2026-04-27 00:37 42.76972 20.41597 34248 ft 432 kts 309°
2026-04-27 00:37 42.80814 20.35316 34241 ft 432 kts 309°
2026-04-27 00:38 42.84651 20.29027 34251 ft 431 kts 309°
2026-04-27 00:38 42.88463 20.22767 34251 ft 432 kts 308°
2026-04-27 00:39 42.92297 20.16459 34256 ft 432 kts 308°
2026-04-27 00:39 42.96124 20.10146 34257 ft 431 kts 309°
2026-04-27 00:40 42.99948 20.03827 34264 ft 431 kts 308°
2026-04-27 00:40 43.01866 20.00651 33890 ft 437 kts 308°
2026-04-27 00:40 43.03794 19.97455 33317 ft 435 kts 308°
2026-04-27 00:41 43.05709 19.94279 32880 ft 429 kts 309°
2026-04-27 00:41 43.07598 19.91141 32371 ft 426 kts 309°
2026-04-27 00:41 43.09470 19.88030 31923 ft 421 kts 309°
2026-04-27 00:41 43.11328 19.84939 31468 ft 418 kts 309°
2026-04-27 00:42 43.13163 19.81882 31009 ft 414 kts 309°
2026-04-27 00:42 43.14984 19.78843 30572 ft 411 kts 309°
2026-04-27 00:42 43.16788 19.75832 30094 ft 408 kts 309°
2026-04-27 00:42 43.18584 19.72830 29593 ft 404 kts 309°
2026-04-27 00:43 43.20355 19.69868 29137 ft 400 kts 309°
2026-04-27 00:43 43.22105 19.66937 28676 ft 396 kts 309°
2026-04-27 00:43 43.23840 19.64028 28225 ft 392 kts 309°
2026-04-27 00:43 43.25538 19.61178 27774 ft 389 kts 309°
2026-04-27 00:44 43.27264 19.58278 27320 ft 386 kts 309°
2026-04-27 00:44 43.28933 19.55473 26887 ft 383 kts 309°
2026-04-27 00:44 43.30610 19.52651 26458 ft 380 kts 309°
2026-04-27 00:44 43.32278 19.49841 26022 ft 378 kts 309°
2026-04-27 00:45 43.33931 19.47053 25598 ft 376 kts 309°
2026-04-27 00:45 43.35582 19.44267 25166 ft 374 kts 309°
2026-04-27 00:45 43.37218 19.41502 24742 ft 372 kts 309°
2026-04-27 00:45 43.38850 19.38743 24270 ft 372 kts 309°
2026-04-27 00:46 43.40481 19.35983 23873 ft 371 kts 309°
2026-04-27 00:46 43.42103 19.33235 23401 ft 369 kts 309°
2026-04-27 00:46 43.43716 19.30499 22938 ft 367 kts 309°
2026-04-27 00:46 43.45317 19.27782 22502 ft 364 kts 309°
2026-04-27 00:47 43.46907 19.25081 22074 ft 362 kts 309°
2026-04-27 00:47 43.48490 19.22389 21659 ft 360 kts 309°
2026-04-27 00:47 43.50059 19.19718 21241 ft 358 kts 309°
2026-04-27 00:47 43.51600 19.17093 20837 ft 356 kts 309°
2026-04-27 00:48 43.53170 19.14416 20432 ft 354 kts 309°
2026-04-27 00:48 43.54694 19.11815 20036 ft 352 kts 309°
2026-04-27 00:48 43.56231 19.09189 19633 ft 351 kts 309°
2026-04-27 00:48 43.57758 19.06579 19233 ft 349 kts 309°
2026-04-27 00:49 43.59282 19.03972 18836 ft 348 kts 309°
2026-04-27 00:49 43.60801 19.01370 18405 ft 348 kts 309°
2026-04-27 00:49 43.62311 18.98781 17959 ft 346 kts 309°
2026-04-27 00:49 43.63815 18.96199 17539 ft 344 kts 309°
2026-04-27 00:50 43.65311 18.93630 17128 ft 342 kts 309°
2026-04-27 00:50 43.68269 18.88544 16330 ft 337 kts 309°
2026-04-27 00:50 43.69736 18.86018 15934 ft 335 kts 309°
2026-04-27 00:51 43.71189 18.83513 15549 ft 333 kts 309°
2026-04-27 00:51 43.72635 18.81018 15173 ft 332 kts 309°
2026-04-27 00:51 43.74073 18.78536 14790 ft 330 kts 309°
2026-04-27 00:51 43.75506 18.76060 14397 ft 329 kts 309°
2026-04-27 00:52 43.76915 18.73625 13980 ft 328 kts 309°
2026-04-27 00:52 43.78336 18.71164 13557 ft 326 kts 309°
2026-04-27 00:52 43.79747 18.68719 13147 ft 324 kts 309°
2026-04-27 00:52 43.81150 18.66287 12761 ft 322 kts 309°
2026-04-27 00:53 43.82541 18.63874 12370 ft 320 kts 309°
2026-04-27 00:53 43.83916 18.61486 12170 ft 311 kts 309°
2026-04-27 00:53 43.85244 18.59177 12038 ft 302 kts 309°
2026-04-27 00:53 43.86532 18.56935 11905 ft 293 kts 309°
2026-04-27 00:54 43.87782 18.54759 11776 ft 284 kts 309°
2026-04-27 00:54 43.88994 18.52648 11660 ft 276 kts 309°
2026-04-27 00:54 43.90171 18.50598 11544 ft 267 kts 309°
2026-04-27 00:54 43.91310 18.48610 11427 ft 259 kts 309°
2026-04-27 00:55 43.92417 18.46679 11323 ft 251 kts 310°
2026-04-27 00:55 43.93489 18.44810 11169 ft 246 kts 311°
2026-04-27 00:55 43.94619 18.42995 10807 ft 250 kts 313°
2026-04-27 00:55 43.95802 18.41163 10322 ft 259 kts 314°
2026-04-27 00:56 43.97006 18.39302 9984 ft 260 kts 314°
2026-04-27 00:56 43.98212 18.37431 9692 ft 259 kts 313°
2026-04-27 00:56 43.99409 18.35566 9398 ft 258 kts 313°
2026-04-27 00:56 44.00597 18.33709 9125 ft 256 kts 313°
2026-04-27 00:57 44.01778 18.31860 8848 ft 255 kts 313°
2026-04-27 00:57 44.02952 18.30019 8578 ft 254 kts 313°
2026-04-27 00:57 44.04116 18.28192 8323 ft 252 kts 312°
2026-04-27 00:57 44.04850 18.26939 8139 ft 252 kts 302°
2026-04-27 00:58 44.05347 18.24632 7875 ft 252 kts 270°
2026-04-27 00:58 44.04647 18.21607 7562 ft 251 kts 234°
2026-04-27 00:58 44.03885 18.20359 7407 ft 250 kts 226°
2026-04-27 00:58 44.02642 18.18675 7155 ft 250 kts 223°
2026-04-27 00:59 44.01378 18.17029 6906 ft 249 kts 223°
2026-04-27 00:59 44.00123 18.15378 6650 ft 248 kts 223°
2026-04-27 00:59 43.98882 18.13725 6384 ft 247 kts 223°
2026-04-27 00:59 43.97647 18.12069 6125 ft 247 kts 223°
2026-04-27 01:00 43.96421 18.10420 5959 ft 242 kts 223°
2026-04-27 01:00 43.95221 18.08807 5734 ft 238 kts 221°
2026-04-27 01:00 43.93851 18.07729 5466 ft 228 kts 187°
2026-04-27 01:00 43.92372 18.08048 5270 ft 210 kts 149°
2026-04-27 01:01 43.91330 18.09371 5095 ft 199 kts 124°
2026-04-27 01:01 43.90665 18.11019 4889 ft 195 kts 115°
2026-04-27 01:01 43.90083 18.12643 4675 ft 176 kts 115°
2026-04-27 01:01 43.89566 18.14086 4457 ft 159 kts 116°
2026-04-27 01:02 43.89073 18.15423 4342 ft 154 kts 117°
2026-04-27 01:02 43.88582 18.16741 4222 ft 155 kts 117°
2026-04-27 01:02 43.88083 18.18076 3978 ft 155 kts 118°
2026-04-27 01:02 43.87590 18.19395 3771 ft 153 kts 118°
2026-04-27 01:03 43.87104 18.20694 3570 ft 152 kts 117°
2026-04-27 01:03 43.86617 18.21995 3376 ft 152 kts 117°
2026-04-27 01:03 43.86140 18.23273 3178 ft 150 kts 116°
2026-04-27 01:03 43.85658 18.24564 2966 ft 152 kts 116°
2026-04-27 01:04 43.85174 18.25862 2761 ft 151 kts 117°
2026-04-27 01:04 43.84693 18.27155 2502 ft 151 kts 117°
2026-04-27 01:04 43.84209 18.28461 2243 ft 152 kts 117°
2026-04-27 01:04 43.83732 18.29766 2014 ft 152 kts 117°
2026-04-27 01:05 43.83246 18.31063 1801 ft 150 kts 118°
2026-04-27 01:05 43.82765 18.32329 1677 ft 141 kts 119°
2026-04-27 01:05 43.82489 18.33069 1684 ft 17 kts 114°
2026-04-27 01:05 43.82515 18.33194 1685 ft 0 kts 68°
2026-04-27 01:06 43.82520 18.33210 1684 ft 6 kts 68°
2026-04-27 01:06 43.82543 18.33292 1683 ft 12 kts 68°
2026-04-27 01:06 43.82533 18.33424 1683 ft 16 kts 117°
2026-04-27 01:06 43.82526 18.33444 1685 ft 1 kts 117°
2026-04-27 01:07 43.82522 18.33454 1684 ft 1 kts 117°
2026-04-27 01:07 43.82519 18.33464 1688 ft 2 kts 117°
2026-04-27 01:07 43.82515 18.33519 1692 ft 14 kts 63°
2026-04-27 01:07 43.82558 18.33561 1687 ft 6 kts 28°
2026-04-27 01:08 43.82560 18.33562 1687 ft 0 kts 28°
2026-04-27 01:17 43.82560 18.33563 1685 ft 0 kts 28°
2026-04-27 01:18 43.82560 18.33562 1685 ft 0 kts 28°
2026-04-27 01:19 43.82560 18.33563 1683 ft 0 kts 28°
2026-04-27 01:30 43.82560 18.33562 1685 ft 0 kts 28°
2026-04-27 01:38 43.82560 18.33563 1683 ft 0 kts 28°